Regional Weather Roundup
Issued by NWS San Diego, CA

Home | Current Version | Previous Version | Text Only | Print | Product List | Glossary On
Versions: 1 2 3 4 5 6 7 8 9 10 11 12 13 14 15 16 17 18 19 20 21 22 23 24 25 26 27
000
ASUS46 KSGX 280611
RWRSGX

SAN DIEGO HOURLY WEATHER ROUNDUP
NATIONAL WEATHER SERVICE SAN DIEGO CA
1100 PM PDT WED JUL 27 2016

NOTE: "FAIR" INDICATES FEW OR NO CLOUDS BELOW 12,000 FEET WITH NO
SIGNIFICANT WEATHER AND/OR OBSTRUCTIONS TO VISIBILITY.

CAZ042-043-060-061-PZZ750-775-280700-

GREATER SAN DIEGO AREA

CITY           SKY/WX    TMP DP  RH WIND       PRES   REMARKS
LINDBERGH FLD  PTCLDY    71  65  81 W3        29.91F
POINT LOMA       N/A     70  67  89 W6          N/A
NATIONAL CITY    N/A     74  69  85 CALM      29.92S
CHULA VISTA      N/A     71  69  91 W2        29.83F
IMPERIAL BEACH PTCLDY    73  67  81 W3        29.91S
BROWN FIELD    CLEAR     72  66  81 CALM      29.91F
MIRAMAR MCAS   PTCLDY    73  62  68 W3        29.91F
MONTGOMERY FLD CLEAR     75  64  68 CALM      29.91F

$$

NORTH SAN DIEGO COUNTY

CITY           SKY/WX    TMP DP  RH WIND       PRES   REMARKS
CAMP PENDLETON PTCLDY    71  68  90 CALM      29.90S
OCEANSIDE AP   CLEAR     71  65  81 W3        29.89F
OCEANSIDE HBR    N/A     72  69  90 CALM      29.93S
VISTA            N/A     72  64  75 CALM      29.87F
CARLSBAD       CLEAR     72  67  84 CALM      29.90F
DEL MAR          N/A     69  66  89 CALM      29.92F
LA JOLLA SCRIP   N/A     71  67  87 W2        29.89F
FALLBROOK        N/A     72  66  82 CALM      29.88F
ESCONDIDO        N/A     76  65  67 CALM      29.91F
SAN MARCOS       N/A     73  62  68 CALM      29.93S
POWAY            N/A     74  64  71 CALM      29.90F

$$

EAST SAN DIEGO COUNTY

CITY           SKY/WX    TMP DP  RH WIND       PRES   REMARKS
RAMONA         CLEAR     72  49  44 CALM      29.94F
SANTEE LAKES     N/A     74  63  67 CALM      29.88S
LA MESA          N/A     73  65  77 CALM      29.83S
JAMUL            N/A     72  63  73 CALM      29.89S
DESCANSO N       N/A     68  48  48 SW3       29.75F
MT. LAGUNA OBS   N/A     73  46  38 NW2       29.79S
CAMPO            N/A     71  51  49 S3        29.97F

$$

ORANGE COUNTY AND THE LOS ANGELES BASIN

CITY           SKY/WX    TMP DP  RH WIND       PRES   REMARKS
JOHN WAYNE AP  CLEAR     71  66  84 SW8       29.89S
LAGUNA BEACH     N/A    N/A N/A N/A CALM      29.85S
LAKE FOREST FR   N/A     76  43  30 CALM      29.76S
HUNTINGTON BCH   N/A     70  68  92 W3        29.91S
LOS ALAMITOS   FAIR      73  65  75 S2        29.89R
FULLERTON      CLEAR     77  65  66 S5        29.88S
LONG BEACH     CLEAR     73  65  75 NW5       29.89S
L.A. AP        PTCLDY    71  65  81 SW7       29.90S
L.A. DOWNTOWN  CLEAR     71  65  81 CALM      29.89S

$$

THE INLAND EMPIRE

CITY           SKY/WX    TMP DP  RH WIND       PRES   REMARKS
CHINO          CLEAR     77  55  46 NW6       29.92S
ONTARIO        CLEAR     79  51  37 W8        29.91S
SAN BERNARDINO FAIR      83  45  26 SW6       29.93S
RIVERSIDE AP   CLEAR     81  49  32 CALM      29.91S
MORENO VALLEY    N/A     80  53  39 CALM      28.04S
MARCH ARB      CLEAR     79  42  27 NW3       29.94S
HORSETHIEF CYN   N/A     78  37  22 W2        29.90S
PERRIS           N/A     82  49  32 SE1       29.93F
HEMET EAST       N/A     81  47  29 CALM      29.77F
FRENCH VALLEY  FAIR      77  54  44 S5        29.94F
TEMECULA         N/A     77  54  43 SW1       29.90S

$$

SAN BERNARDINO AND RIVERSIDE COUNTY MOUNTAINS

CITY           SKY/WX    TMP DP  RH WIND       PRES   REMARKS
BIG BEAR AP    CLEAR     59  46  63 CALM      30.32F
PINE COVE        N/A     74  48  40 NW3       29.83F

$$

SOUTHERN DESERT INCLUDING THE COACHELLA VALLEY

CITY           SKY/WX    TMP DP  RH WIND       PRES   REMARKS
PALM SPRINGS   CLEAR     99  51  19 NW16      29.74S HX  96
THOUSAND PALMS   N/A     97  54  23 NW21      29.70R
PALM DESERT      N/A     97  57  25 CALM        N/A  HX  96
THERMAL        CLEAR    101  52  19 NW10      29.67R HX  98
BLYTHE         CLEAR    105  57  20 SW14      29.69F HX 104
IMPERIAL AP    CLEAR     96  56  26 W10       29.69S
EL CENTRO NAS  CLEAR     96  50  20 W12       29.72R
YUMA AZ        MOCLDY    96  64  34 S7        29.71  HX  98
MEXICALI       PTCLDY    99  59  26 SE6       29.71S HX  98

$$

UPPER DESERT

CITY           SKY/WX    TMP DP  RH WIND       PRES   REMARKS
VICTORVILLE AP CLEAR     84  46  26 CALM      29.99S
HESPERIA         N/A     80  48  32 W3        29.90S
PALMDALE       CLEAR     87  39  18 SW12      29.96F
LANCASTER      CLEAR     88  36  15 SW8       29.94S
EDWARDS AFB    CLEAR     86  41  20 SW10      29.91S
DAGGETT        CLEAR     97  43  15 SW15      29.88S
29 PALMS N     CLEAR     97  46  17 N5        29.93S
NEEDLES        MOCLDY   106  56  19 CALM      29.72S HX 105

$$

REGIONAL REPORTS

CITY           SKY/WX    TMP DP  RH WIND       PRES   REMARKS
SANTA BARBARA  CLEAR     65  61  87 SE3       29.87S
SANDBERG       CLEAR     85  32  15 VRB6G24   30.15S
LAS VEGAS NV   PTCLDY   102  44  14 S6        29.78F HX  98
PHOENIX AZ     PTCLDY   102  58  23 S7        29.76R HX 102
TIJUANA        PTCLDY    72  63  73 NW6       29.93S
ENSENADA NW      N/A     71  32  24 CALM      29.88S

$$

OFFSHORE ISLANDS

CITY           SKY/WX    TMP DP  RH WIND       PRES   REMARKS
CATALINA ARPT  CLEAR     79  11   7 W6        29.97S
SAN NICOLAS IS CLEAR     69  58  67 N7        29.91S

$$

MARINE AND OFFSHORE BUOY REPORTS

STATION/POSITION SKY/WX   TEMP    WIND        PRES    SWELL
                          AIR SEA DIR/SP/G            HT/PER/DIR
                          (F)     (DEG/KT/KT) (MB)    (FT/S/D)
TANNER BANKS               61 65  290/ 10/ 12 1013.6R   3/290/ 9
S CLEMENTE BASIN           67 70  280/ 10/ 12 1012.4F   3/200/ 9
SAN NICOLAS IS.               64                N/A     2/290/11
SO. S. ROSA ISLA           62 67  300/ 14/ 17 1012.3F   5/300/ 9
W. S. BARBARA CH           59 63  300/ 19/ 23 1011.9F   3/320/10
M. S. BARBARA CH                  240/ 14/ 16 1012.1R
S. MONICA BASIN            70 71  240/  6/  8 1011.9F
S PEDRO CHANNEL               72                N/A     2/180/13
OCEANSIDE OFFSHR              77                N/A     2/190/13
TORREY PINES OTR              76                N/A     2/230/11
LA JOLLA 1                 72 76  280/  1/  2 1012.6R
SAN DIEGO BAY                 80              1012.9R
POINT LOMA SOUTH              73                N/A     2/190/13

$$





USA.gov is the U.S. government's official web portal to all federal, state and local government web resources and services.